星链-32111 (STARLINK-32111 )

导读 | 星芒AI

STARLINK-32111 是 SpaceX Starlink 卫星互联网项目中的一颗低轨卫星,属于第三代星链卫星(v1.5 或 v2 版本)。它运行在约 550 公里的近地轨道上,旨在为全球用户提供高速、低延迟的宽带互联网服务。该卫星配备了先进相控阵天线和激光通信系统,支持高效数据传输与星间通信,增强网络覆盖与稳定性。作为 Starlink 群体的一部分,STARLINK-32111 有助于扩大 SpaceX 在全球卫星互联网市场的影响力。

基本信息
目录编号:
60073
目录名称:
STARLINK-32111
国际标识:
2024-113Q
轨道中心:
EARTH
卫星名称:
星链-32111
卫星全名:
星链-32111 (STARLINK-32111 )
卫星状态:
已陨落 最后检测时间 2024-07-13
发射日期:
2024-06-19 UTC
国别 :
美国 (US)
星等 :
--
轨道信息
数据来源 国际轨道数据
星历时间: 2024-07-13T12:12:00+0800
轨道信息已过期482天
半长轴: 6537.833km
偏心率: 0.0008547
轨道倾角: 53.145°
近地点辐角 326.246°
升交点赤经 289.644°
平近点角 135.819°
近地点: 154.11km
远地点: 165.286km
周期: 87.682分钟
每日圈数: 16.422985
详细信息
固有亮度:
5
最大亮度:
1.5
卫星平台:
Starlink v2.0 mini
覆盖范围:
全球
运营商:
太空探索技术公司
运营商所在国:
美国
制造商(研发单位):
太空探索技术公司
制造商所在国:
美国
使用方式:
暂无
卫星简介
星链(Starlink)计划是由太空探索技术公司(SpaceX)提出的一个巨型低轨卫星互联网星座项目,计划在2019年至2024年间在太空搭建由约1.2万颗卫星组成的“星链”网络,其中1584颗将部署在地球上空550千米处的近地轨道,并从2020年开始工作。该卫星仍在工作。